Overview Statistics Trail Chart Weather Telemetry Raw packets
 

This is the latest recevied weather packets stored in our database for station/object KB4MLW-13. If no packets are shown the sender has not sent any weather packets the latest 10 day(s).

<< 15 16 17 18 19 20 21 >>
Time Temp. Humidity Pressure Rain* Wind** Luminosity Snow
1788356488 29.44° C 75% 1002.6 hPa 0 mm - - -
1788356399 28.89° C 75% 1002.3 hPa 0 mm - - -
1788356338 28.89° C 76% 1002.8 hPa 0 mm - - -
1788356278 28.89° C 78% 1002.5 hPa 0 mm - - -
1788356218 28.89° C 77% 1002.5 hPa 0 mm - - -
1788356158 28.89° C 76% 1002.7 hPa 0 mm - - -
1788356098 28.89° C 77% 1002.6 hPa 0 mm - - -
1788356038 28.89° C 76% 1002.5 hPa 0 mm - - -
1788355948 28.89° C 77% 1002.5 hPa 0 mm - - -
1788355888 28.89° C 77% 1002.6 hPa 0 mm - - -
1788355828 28.89° C 77% 1002.6 hPa 0 mm - - -
1788355768 28.89° C 78% 1002.4 hPa 0 mm - - -
1788355679 28.89° C 77% 1002.8 hPa 0 mm - - -
1788355589 28.89° C 79% 1002.5 hPa 0 mm - - -
1788355528 28.89° C 78% 1002.5 hPa 0 mm - - -
1788355468 28.89° C 78% 1002.6 hPa 0 mm - - -
1788355408 28.89° C 77% 1002.4 hPa 0 mm - - -
1788355319 28.33° C 75% 1002.4 hPa 0 mm - - -
1788355258 28.33° C 79% 1002.7 hPa 0 mm - - -
1788355198 28.33° C 78% 1002.6 hPa 0 mm - - -
1788355138 28.33° C 79% 1002.6 hPa 0 mm - - -
1788355049 28.33° C 78% 1002.6 hPa 0 mm - - -
1788354988 28.33° C 79% 1002.5 hPa 0 mm - - -
1788354928 28.33° C 79% 1002.5 hPa 0 mm - - -
1788354868 28.33° C 79% 1002.4 hPa 0 mm - - -

* Rain latest hour (hover to see other rain measurements)
** Current wind speed in m/s (hover to see current wind gust speed)